CN,EVAL_CN,ATTRIBUTE_NBR,STATECD,CREATED_BY,CREATED_DATE,CREATED_IN_INSTANCE,MODIFIED_BY,MODIFIED_DATE,MODIFIED_IN_INSTANCE
1404086817290487,310487518489998,52,60,SRASH,2023-08-08 14:29:13,290487,,,
1404086818290487,310487518489998,59,60,SRASH,2023-08-08 14:29:13,290487,,,
1404086819290487,310487518489998,62,60,SRASH,2023-08-08 14:29:13,290487,,,
1404086820290487,310487518489998,63,60,SRASH,2023-08-08 14:29:13,290487,,,
1404086821290487,310487518489998,64,60,SRASH,2023-08-08 14:29:13,290487,,,
1404086822290487,310487518489998,65,60,SRASH,2023-08-08 14:29:13,290487,,,
1404086823290487,310487518489998,66,60,SRASH,2023-08-08 14:29:13,290487,,,
1404086824290487,310487518489998,73,60,SRASH,2023-08-08 14:29:13,290487,,,
1404086825290487,310487518489998,79,60,SRASH,2023-08-08 14:29:13,290487,,,
1404086826290487,310487518489998,96,60,SRASH,2023-08-08 14:29:13,290487,,,
1404086827290487,310487518489998,97,60,SRASH,2023-08-08 14:29:13,290487,,,
1404086828290487,310487518489998,98,60,SRASH,2023-08-08 14:29:13,290487,,,
1404086829290487,310487518489998,99,60,SRASH,2023-08-08 14:29:13,290487,,,
1404086830290487,310487518489998,100,60,SRASH,2023-08-08 14:29:13,290487,,,
1404086831290487,310487518489998,101,60,SRASH,2023-08-08 14:29:13,290487,,,
1404086832290487,310487518489998,102,60,SRASH,2023-08-08 14:29:13,290487,,,
1404086833290487,310487518489998,103,60,SRASH,2023-08-08 14:29:13,290487,,,
1404086834290487,310487518489998,131,60,SRASH,2023-08-08 14:29:13,290487,,,
1404086835290487,310487518489998,132,60,SRASH,2023-08-08 14:29:13,290487,,,
1404086836290487,310487518489998,1004,60,SRASH,2023-08-08 14:29:13,290487,,,
1404086837290487,310487518489998,1005,60,SRASH,2023-08-08 14:29:13,290487,,,
1404086838290487,310487518489998,1007,60,SRASH,2023-08-08 14:29:13,290487,,,
1404086839290487,310487518489998,1008,60,SRASH,2023-08-08 14:29:13,290487,,,
1404086840290487,310487518489998,11000,60,SRASH,2023-08-08 14:29:13,290487,,,
1404086841290487,310487518489998,11001,60,SRASH,2023-08-08 14:29:13,290487,,,
1404086842290487,310487518489998,11002,60,SRASH,2023-08-08 14:29:13,290487,,,
1404086843290487,310487518489998,11003,60,SRASH,2023-08-08 14:29:13,290487,,,
1404086844290487,310487518489998,11004,60,SRASH,2023-08-08 14:29:13,290487,,,
1404086845290487,310487518489998,11005,60,SRASH,2023-08-08 14:29:13,290487,,,
1404086846290487,310487518489998,11006,60,SRASH,2023-08-08 14:29:13,290487,,,
1404086847290487,310487518489998,11007,60,SRASH,2023-08-08 14:29:13,290487,,,
1404086848290487,310487518489998,11008,60,SRASH,2023-08-08 14:29:13,290487,,,
1404086849290487,310487518489998,11009,60,SRASH,2023-08-08 14:29:13,290487,,,
1404086850290487,310487518489998,11010,60,SRASH,2023-08-08 14:29:13,290487,,,
1404086851290487,310487518489998,11011,60,SRASH,2023-08-08 14:29:13,290487,,,
1404086852290487,310487518489998,11012,60,SRASH,2023-08-08 14:29:13,290487,,,
1404086853290487,310487518489998,11013,60,SRASH,2023-08-08 14:29:13,290487,,,
1404086854290487,310487518489998,11014,60,SRASH,2023-08-08 14:29:13,290487,,,
1404086855290487,310487518489998,11015,60,SRASH,2023-08-08 14:29:13,290487,,,
1404086856290487,310487518489998,11016,60,SRASH,2023-08-08 14:29:13,290487,,,
1404086857290487,310487518489998,11017,60,SRASH,2023-08-08 14:29:13,290487,,,
1404086858290487,310487518489998,11018,60,SRASH,2023-08-08 14:29:13,290487,,,
1404086859290487,310487518489998,11019,60,SRASH,2023-08-08 14:29:13,290487,,,
1404086860290487,310487518489998,11020,60,SRASH,2023-08-08 14:29:13,290487,,,
1404086861290487,310487518489998,11021,60,SRASH,2023-08-08 14:29:13,290487,,,
1404086862290487,310487518489998,11022,60,SRASH,2023-08-08 14:29:13,290487,,,
1404086863290487,310487518489998,11023,60,SRASH,2023-08-08 14:29:13,290487,,,
1404086864290487,310487518489998,11024,60,SRASH,2023-08-08 14:29:13,290487,,,
1404086865290487,310487518489998,11025,60,SRASH,2023-08-08 14:29:13,290487,,,
1404086866290487,310487518489998,11026,60,SRASH,2023-08-08 14:29:13,290487,,,
1404086867290487,310487518489998,11027,60,SRASH,2023-08-08 14:29:13,290487,,,
1404086868290487,310487518489998,11028,60,SRASH,2023-08-08 14:29:13,290487,,,
1404086869290487,310487518489998,11029,60,SRASH,2023-08-08 14:29:13,290487,,,
1404086973290487,310487519489998,1,60,SRASH,2023-08-08 14:29:13,290487,,,
1404086976290487,310487520489998,2,60,SRASH,2023-08-08 14:29:13,290487,,,
1404086977290487,310487520489998,3,60,SRASH,2023-08-08 14:29:13,290487,,,
1404086978290487,310487520489998,4,60,SRASH,2023-08-08 14:29:13,290487,,,
1404086979290487,310487520489998,5,60,SRASH,2023-08-08 14:29:13,290487,,,
1404086980290487,310487520489998,6,60,SRASH,2023-08-08 14:29:13,290487,,,
1404086981290487,310487520489998,7,60,SRASH,2023-08-08 14:29:13,290487,,,
1404086982290487,310487520489998,8,60,SRASH,2023-08-08 14:29:13,290487,,,
1404086983290487,310487520489998,9,60,SRASH,2023-08-08 14:29:13,290487,,,
1404086984290487,310487520489998,10,60,SRASH,2023-08-08 14:29:13,290487,,,
1404086985290487,310487520489998,13,60,SRASH,2023-08-08 14:29:13,290487,,,
1404086986290487,310487520489998,15,60,SRASH,2023-08-08 14:29:13,290487,,,
1404086987290487,310487520489998,16,60,SRASH,2023-08-08 14:29:13,290487,,,
1404086988290487,310487520489998,18,60,SRASH,2023-08-08 14:29:13,290487,,,
1404086989290487,310487520489998,19,60,SRASH,2023-08-08 14:29:13,290487,,,
1404086990290487,310487520489998,20,60,SRASH,2023-08-08 14:29:13,290487,,,
1404086991290487,310487520489998,21,60,SRASH,2023-08-08 14:29:13,290487,,,
1404086992290487,310487520489998,22,60,SRASH,2023-08-08 14:29:13,290487,,,
1404086993290487,310487520489998,45,60,SRASH,2023-08-08 14:29:13,290487,,,
1404086994290487,310487520489998,46,60,SRASH,2023-08-08 14:29:13,290487,,,
1404086995290487,310487520489998,48,60,SRASH,2023-08-08 14:29:13,290487,,,
1404086996290487,310487520489998,49,60,SRASH,2023-08-08 14:29:13,290487,,,
1404086997290487,310487520489998,50,60,SRASH,2023-08-08 14:29:13,290487,,,
1404086998290487,310487520489998,51,60,SRASH,2023-08-08 14:29:13,290487,,,
1404086999290487,310487520489998,52,60,SRASH,2023-08-08 14:29:13,290487,,,
1404087000290487,310487520489998,59,60,SRASH,2023-08-08 14:29:13,290487,,,
1404087001290487,310487520489998,62,60,SRASH,2023-08-08 14:29:13,290487,,,
1404087002290487,310487520489998,63,60,SRASH,2023-08-08 14:29:13,290487,,,
1404087003290487,310487520489998,64,60,SRASH,2023-08-08 14:29:13,290487,,,
1404087004290487,310487520489998,65,60,SRASH,2023-08-08 14:29:13,290487,,,
1404087005290487,310487520489998,66,60,SRASH,2023-08-08 14:29:13,290487,,,
1404087006290487,310487520489998,73,60,SRASH,2023-08-08 14:29:13,290487,,,
1404087007290487,310487520489998,79,60,SRASH,2023-08-08 14:29:13,290487,,,
1404087008290487,310487520489998,96,60,SRASH,2023-08-08 14:29:13,290487,,,
1404087009290487,310487520489998,97,60,SRASH,2023-08-08 14:29:13,290487,,,
1404087010290487,310487520489998,98,60,SRASH,2023-08-08 14:29:13,290487,,,
1404087011290487,310487520489998,99,60,SRASH,2023-08-08 14:29:13,290487,,,
1404087012290487,310487520489998,100,60,SRASH,2023-08-08 14:29:13,290487,,,
1404087013290487,310487520489998,101,60,SRASH,2023-08-08 14:29:13,290487,,,
1404087014290487,310487520489998,102,60,SRASH,2023-08-08 14:29:13,290487,,,
1404087015290487,310487520489998,103,60,SRASH,2023-08-08 14:29:13,290487,,,
1404087016290487,310487520489998,131,60,SRASH,2023-08-08 14:29:13,290487,,,
1404087017290487,310487520489998,132,60,SRASH,2023-08-08 14:29:13,290487,,,
1404087018290487,310487520489998,1004,60,SRASH,2023-08-08 14:29:13,290487,,,
1404087019290487,310487520489998,1005,60,SRASH,2023-08-08 14:29:13,290487,,,
1404087020290487,310487520489998,1007,60,SRASH,2023-08-08 14:29:13,290487,,,
1404087021290487,310487520489998,1008,60,SRASH,2023-08-08 14:29:13,290487,,,
1404087022290487,310487520489998,11000,60,SRASH,2023-08-08 14:29:13,290487,,,
1404087023290487,310487520489998,11001,60,SRASH,2023-08-08 14:29:13,290487,,,
1404087024290487,310487520489998,11002,60,SRASH,2023-08-08 14:29:13,290487,,,
1404087025290487,310487520489998,11003,60,SRASH,2023-08-08 14:29:13,290487,,,
1404087026290487,310487520489998,11004,60,SRASH,2023-08-08 14:29:13,290487,,,
1404087027290487,310487520489998,11005,60,SRASH,2023-08-08 14:29:13,290487,,,
1404087028290487,310487520489998,11006,60,SRASH,2023-08-08 14:29:13,290487,,,
1404087029290487,310487520489998,11007,60,SRASH,2023-08-08 14:29:13,290487,,,
1404087030290487,310487520489998,11008,60,SRASH,2023-08-08 14:29:13,290487,,,
1404087031290487,310487520489998,11009,60,SRASH,2023-08-08 14:29:13,290487,,,
1404087032290487,310487520489998,11010,60,SRASH,2023-08-08 14:29:13,290487,,,
1404087033290487,310487520489998,11011,60,SRASH,2023-08-08 14:29:13,290487,,,
1404087034290487,310487520489998,11012,60,SRASH,2023-08-08 14:29:13,290487,,,
1404087035290487,310487520489998,11013,60,SRASH,2023-08-08 14:29:13,290487,,,
1404087036290487,310487520489998,11014,60,SRASH,2023-08-08 14:29:13,290487,,,
1404087037290487,310487520489998,11015,60,SRASH,2023-08-08 14:29:13,290487,,,
1404087038290487,310487520489998,11016,60,SRASH,2023-08-08 14:29:13,290487,,,
1404087039290487,310487520489998,11017,60,SRASH,2023-08-08 14:29:13,290487,,,
1404087040290487,310487520489998,11018,60,SRASH,2023-08-08 14:29:13,290487,,,
1404087041290487,310487520489998,11019,60,SRASH,2023-08-08 14:29:13,290487,,,
1404087042290487,310487520489998,11020,60,SRASH,2023-08-08 14:29:13,290487,,,
1404087043290487,310487520489998,11021,60,SRASH,2023-08-08 14:29:13,290487,,,
1404087044290487,310487520489998,11022,60,SRASH,2023-08-08 14:29:13,290487,,,
1404087045290487,310487520489998,11023,60,SRASH,2023-08-08 14:29:13,290487,,,
1404087046290487,310487520489998,11024,60,SRASH,2023-08-08 14:29:13,290487,,,
1404087047290487,310487520489998,11025,60,SRASH,2023-08-08 14:29:13,290487,,,
1404087048290487,310487520489998,11026,60,SRASH,2023-08-08 14:29:13,290487,,,
1404087049290487,310487520489998,11027,60,SRASH,2023-08-08 14:29:13,290487,,,
1404087050290487,310487520489998,11028,60,SRASH,2023-08-08 14:29:13,290487,,,
1404087051290487,310487520489998,11029,60,SRASH,2023-08-08 14:29:13,290487,,,
1404087052290487,310487520489998,11030,60,SRASH,2023-08-08 14:29:13,290487,,,
1404087053290487,310487520489998,11031,60,SRASH,2023-08-08 14:29:13,290487,,,
1404087054290487,310487520489998,11032,60,SRASH,2023-08-08 14:29:13,290487,,,
1404087055290487,310487520489998,11033,60,SRASH,2023-08-08 14:29:13,290487,,,
1404087056290487,310487520489998,11034,60,SRASH,2023-08-08 14:29:13,290487,,,
1404087057290487,310487520489998,11035,60,SRASH,2023-08-08 14:29:13,290487,,,
1404087058290487,310487520489998,11036,60,SRASH,2023-08-08 14:29:13,290487,,,
1404087059290487,310487520489998,11037,60,SRASH,2023-08-08 14:29:13,290487,,,
1404087060290487,310487520489998,11038,60,SRASH,2023-08-08 14:29:13,290487,,,
1404087061290487,310487520489998,11039,60,SRASH,2023-08-08 14:29:13,290487,,,
1404087062290487,310487520489998,11040,60,SRASH,2023-08-08 14:29:13,290487,,,
1404087063290487,310487520489998,11041,60,SRASH,2023-08-08 14:29:13,290487,,,
1404087064290487,310487520489998,11042,60,SRASH,2023-08-08 14:29:13,290487,,,
1404087065290487,310487520489998,11043,60,SRASH,2023-08-08 14:29:13,290487,,,
1404087066290487,310487520489998,11044,60,SRASH,2023-08-08 14:29:13,290487,,,
1404087067290487,310487520489998,11045,60,SRASH,2023-08-08 14:29:13,290487,,,
1404087068290487,310487520489998,11046,60,SRASH,2023-08-08 14:29:13,290487,,,
1404087069290487,310487520489998,11047,60,SRASH,2023-08-08 14:29:13,290487,,,
1404087070290487,310487520489998,11048,60,SRASH,2023-08-08 14:29:13,290487,,,
1404087071290487,310487520489998,11049,60,SRASH,2023-08-08 14:29:13,290487,,,
1404087072290487,310487520489998,11050,60,SRASH,2023-08-08 14:29:13,290487,,,
1404087073290487,310487520489998,11051,60,SRASH,2023-08-08 14:29:13,290487,,,
1404087074290487,310487520489998,11052,60,SRASH,2023-08-08 14:29:13,290487,,,
1404087075290487,310487520489998,11053,60,SRASH,2023-08-08 14:29:13,290487,,,
1404087076290487,310487520489998,11054,60,SRASH,2023-08-08 14:29:13,290487,,,
1404087077290487,310487520489998,11055,60,SRASH,2023-08-08 14:29:13,290487,,,
1404087078290487,310487520489998,11056,60,SRASH,2023-08-08 14:29:13,290487,,,
1404087079290487,310487520489998,11057,60,SRASH,2023-08-08 14:29:13,290487,,,
1404087080290487,310487520489998,11058,60,SRASH,2023-08-08 14:29:13,290487,,,
1404087081290487,310487520489998,11059,60,SRASH,2023-08-08 14:29:13,290487,,,
1404087082290487,310487520489998,11060,60,SRASH,2023-08-08 14:29:13,290487,,,
1404087083290487,310487520489998,11061,60,SRASH,2023-08-08 14:29:13,290487,,,
1404087084290487,310487520489998,11062,60,SRASH,2023-08-08 14:29:13,290487,,,
1404087085290487,310487520489998,11063,60,SRASH,2023-08-08 14:29:13,290487,,,
1404087086290487,310487520489998,11064,60,SRASH,2023-08-08 14:29:13,290487,,,
1404087087290487,310487520489998,11065,60,SRASH,2023-08-08 14:29:13,290487,,,
1404087088290487,310487520489998,11066,60,SRASH,2023-08-08 14:29:13,290487,,,
1404087089290487,310487520489998,11067,60,SRASH,2023-08-08 14:29:13,290487,,,
1404087090290487,310487520489998,11068,60,SRASH,2023-08-08 14:29:13,290487,,,
1404087091290487,310487520489998,11069,60,SRASH,2023-08-08 14:29:13,290487,,,
1404087092290487,310487520489998,11070,60,SRASH,2023-08-08 14:29:13,290487,,,
1404087093290487,310487520489998,11071,60,SRASH,2023-08-08 14:29:13,290487,,,
1404087094290487,310487520489998,11072,60,SRASH,2023-08-08 14:29:13,290487,,,
1404087095290487,310487520489998,11213,60,SRASH,2023-08-08 14:29:13,290487,,,
1404087096290487,310487520489998,11214,60,SRASH,2023-08-08 14:29:13,290487,,,
1404087097290487,310487520489998,11249,60,SRASH,2023-08-08 14:29:13,290487,,,
1404087098290487,310487520489998,11250,60,SRASH,2023-08-08 14:29:13,290487,,,
1404087099290487,310487520489998,11251,60,SRASH,2023-08-08 14:29:13,290487,,,
1404087100290487,310487520489998,11252,60,SRASH,2023-08-08 14:29:13,290487,,,
1404087101290487,310487520489998,11253,60,SRASH,2023-08-08 14:29:13,290487,,,
1404087102290487,310487520489998,11264,60,SRASH,2023-08-08 14:29:13,290487,,,
1404087103290487,310487520489998,11265,60,SRASH,2023-08-08 14:29:13,290487,,,
1404087104290487,310487520489998,11266,60,SRASH,2023-08-08 14:29:13,290487,,,
1404087105290487,310487520489998,11267,60,SRASH,2023-08-08 14:29:13,290487,,,
1404087106290487,310487520489998,11268,60,SRASH,2023-08-08 14:29:13,290487,,,
1404087107290487,310487520489998,11269,60,SRASH,2023-08-08 14:29:13,290487,,,
1404087108290487,310487520489998,11270,60,SRASH,2023-08-08 14:29:13,290487,,,
1404087109290487,310487520489998,11271,60,SRASH,2023-08-08 14:29:13,290487,,,
1404087110290487,310487520489998,11272,60,SRASH,2023-08-08 14:29:13,290487,,,
1404087111290487,310487520489998,11273,60,SRASH,2023-08-08 14:29:13,290487,,,
1404087112290487,310487520489998,12000,60,SRASH,2023-08-08 14:29:13,290487,,,
1404087113290487,310487520489998,47000,60,SRASH,2023-08-08 14:29:13,290487,,,
1404087114290487,310487520489998,47001,60,SRASH,2023-08-08 14:29:13,290487,,,
1404087115290487,310487520489998,53000,60,SRASH,2023-08-08 14:29:13,290487,,,
1404087116290487,310487520489998,54000,60,SRASH,2023-08-08 14:29:13,290487,,,
1404087117290487,310487520489998,55000,60,SRASH,2023-08-08 14:29:13,290487,,,
1404087118290487,310487520489998,56000,60,SRASH,2023-08-08 14:29:13,290487,,,
1404087119290487,310487520489998,57000,60,SRASH,2023-08-08 14:29:13,290487,,,
1404087120290487,310487520489998,58000,60,SRASH,2023-08-08 14:29:13,290487,,,
1404087121290487,310487520489998,60000,60,SRASH,2023-08-08 14:29:13,290487,,,
1404087122290487,310487520489998,61000,60,SRASH,2023-08-08 14:29:13,290487,,,
1404087123290487,310487520489998,61001,60,SRASH,2023-08-08 14:29:13,290487,,,
1404087124290487,310487520489998,67000,60,SRASH,2023-08-08 14:29:13,290487,,,
1404087125290487,310487520489998,68000,60,SRASH,2023-08-08 14:29:13,290487,,,
1404087126290487,310487520489998,69000,60,SRASH,2023-08-08 14:29:13,290487,,,
1404087127290487,310487520489998,70000,60,SRASH,2023-08-08 14:29:13,290487,,,
1404087128290487,310487520489998,71000,60,SRASH,2023-08-08 14:29:13,290487,,,
1404087129290487,310487520489998,72000,60,SRASH,2023-08-08 14:29:13,290487,,,
1404087130290487,310487520489998,74000,60,SRASH,2023-08-08 14:29:13,290487,,,
1404087131290487,310487520489998,133000,60,SRASH,2023-08-08 14:29:13,290487,,,
1404087132290487,310487520489998,134000,60,SRASH,2023-08-08 14:29:13,290487,,,
1404087133290487,310487520489998,511000,60,SRASH,2023-08-08 14:29:13,290487,,,
1404087134290487,310487520489998,512000,60,SRASH,2023-08-08 14:29:13,290487,,,
1404087135290487,310487520489998,533000,60,SRASH,2023-08-08 14:29:13,290487,,,
1404087136290487,310487520489998,534000,60,SRASH,2023-08-08 14:29:13,290487,,,
1404087137290487,310487520489998,556000,60,SRASH,2023-08-08 14:29:13,290487,,,
1404087138290487,310487520489998,557000,60,SRASH,2023-08-08 14:29:13,290487,,,
1404087139290487,310487520489998,558000,60,SRASH,2023-08-08 14:29:13,290487,,,
1404087140290487,310487520489998,560000,60,SRASH,2023-08-08 14:29:13,290487,,,
1404087141290487,310487520489998,570000,60,SRASH,2023-08-08 14:29:13,290487,,,
1404087142290487,310487520489998,571000,60,SRASH,2023-08-08 14:29:13,290487,,,
1404087143290487,310487520489998,572000,60,SRASH,2023-08-08 14:29:13,290487,,,
1404087144290487,310487520489998,574000,60,SRASH,2023-08-08 14:29:13,290487,,,
1404087145290487,310487520489998,574171,60,SRASH,2023-08-08 14:29:13,290487,,,
1404087146290487,310487520489998,574172,60,SRASH,2023-08-08 14:29:13,290487,,,
1404087147290487,310487520489998,574173,60,SRASH,2023-08-08 14:29:13,290487,,,
1404087148290487,310487520489998,574174,60,SRASH,2023-08-08 14:29:13,290487,,,
1404087149290487,310487520489998,574175,60,SRASH,2023-08-08 14:29:13,290487,,,
1404087150290487,310487520489998,574200,60,SRASH,2023-08-08 14:29:13,290487,,,
1404087151290487,310487520489998,574201,60,SRASH,2023-08-08 14:29:13,290487,,,
1404087152290487,310487520489998,574202,60,SRASH,2023-08-08 14:29:13,290487,,,
1404086791290487,310487517489998,1,60,SRASH,2023-08-08 14:29:13,290487,,,
1404086870290487,310487518489998,11030,60,SRASH,2023-08-08 14:29:13,290487,,,
1404086871290487,310487518489998,11031,60,SRASH,2023-08-08 14:29:13,290487,,,
1404086872290487,310487518489998,11032,60,SRASH,2023-08-08 14:29:13,290487,,,
1404086873290487,310487518489998,11033,60,SRASH,2023-08-08 14:29:13,290487,,,
1404086874290487,310487518489998,11034,60,SRASH,2023-08-08 14:29:13,290487,,,
1404086875290487,310487518489998,11035,60,SRASH,2023-08-08 14:29:13,290487,,,
1404086876290487,310487518489998,11036,60,SRASH,2023-08-08 14:29:13,290487,,,
1404086877290487,310487518489998,11037,60,SRASH,2023-08-08 14:29:13,290487,,,
1404086878290487,310487518489998,11038,60,SRASH,2023-08-08 14:29:13,290487,,,
1404086879290487,310487518489998,11039,60,SRASH,2023-08-08 14:29:13,290487,,,
1404086880290487,310487518489998,11040,60,SRASH,2023-08-08 14:29:13,290487,,,
1404086881290487,310487518489998,11041,60,SRASH,2023-08-08 14:29:13,290487,,,
1404086882290487,310487518489998,11042,60,SRASH,2023-08-08 14:29:13,290487,,,
1404086883290487,310487518489998,11043,60,SRASH,2023-08-08 14:29:13,290487,,,
1404086884290487,310487518489998,11044,60,SRASH,2023-08-08 14:29:13,290487,,,
1404086885290487,310487518489998,11045,60,SRASH,2023-08-08 14:29:13,290487,,,
1404086886290487,310487518489998,11046,60,SRASH,2023-08-08 14:29:13,290487,,,
1404086887290487,310487518489998,11047,60,SRASH,2023-08-08 14:29:13,290487,,,
1404086888290487,310487518489998,11048,60,SRASH,2023-08-08 14:29:13,290487,,,
1404086889290487,310487518489998,11049,60,SRASH,2023-08-08 14:29:13,290487,,,
1404086890290487,310487518489998,11050,60,SRASH,2023-08-08 14:29:13,290487,,,
1404086891290487,310487518489998,11051,60,SRASH,2023-08-08 14:29:13,290487,,,
1404086892290487,310487518489998,11052,60,SRASH,2023-08-08 14:29:13,290487,,,
1404086893290487,310487518489998,11053,60,SRASH,2023-08-08 14:29:13,290487,,,
1404086894290487,310487518489998,11054,60,SRASH,2023-08-08 14:29:13,290487,,,
1404086895290487,310487518489998,11055,60,SRASH,2023-08-08 14:29:13,290487,,,
1404086896290487,310487518489998,11056,60,SRASH,2023-08-08 14:29:13,290487,,,
1404086897290487,310487518489998,11057,60,SRASH,2023-08-08 14:29:13,290487,,,
1404086898290487,310487518489998,11058,60,SRASH,2023-08-08 14:29:13,290487,,,
1404086899290487,310487518489998,11059,60,SRASH,2023-08-08 14:29:13,290487,,,
1404086900290487,310487518489998,11060,60,SRASH,2023-08-08 14:29:13,290487,,,
1404086901290487,310487518489998,11061,60,SRASH,2023-08-08 14:29:13,290487,,,
1404086902290487,310487518489998,11062,60,SRASH,2023-08-08 14:29:13,290487,,,
1404086903290487,310487518489998,11063,60,SRASH,2023-08-08 14:29:13,290487,,,
1404086904290487,310487518489998,11064,60,SRASH,2023-08-08 14:29:13,290487,,,
1404086905290487,310487518489998,11065,60,SRASH,2023-08-08 14:29:13,290487,,,
1404086906290487,310487518489998,11066,60,SRASH,2023-08-08 14:29:13,290487,,,
1404086907290487,310487518489998,11067,60,SRASH,2023-08-08 14:29:13,290487,,,
1404086908290487,310487518489998,11068,60,SRASH,2023-08-08 14:29:13,290487,,,
1404086909290487,310487518489998,11069,60,SRASH,2023-08-08 14:29:13,290487,,,
1404086910290487,310487518489998,11070,60,SRASH,2023-08-08 14:29:13,290487,,,
1404086911290487,310487518489998,11071,60,SRASH,2023-08-08 14:29:13,290487,,,
1404086912290487,310487518489998,11072,60,SRASH,2023-08-08 14:29:13,290487,,,
1404086913290487,310487518489998,11213,60,SRASH,2023-08-08 14:29:13,290487,,,
1404086914290487,310487518489998,11214,60,SRASH,2023-08-08 14:29:13,290487,,,
1404086915290487,310487518489998,11249,60,SRASH,2023-08-08 14:29:13,290487,,,
1404086916290487,310487518489998,11250,60,SRASH,2023-08-08 14:29:13,290487,,,
1404086917290487,310487518489998,11251,60,SRASH,2023-08-08 14:29:13,290487,,,
1404086918290487,310487518489998,11252,60,SRASH,2023-08-08 14:29:13,290487,,,
1404086919290487,310487518489998,11253,60,SRASH,2023-08-08 14:29:13,290487,,,
1404086920290487,310487518489998,11264,60,SRASH,2023-08-08 14:29:13,290487,,,
1404086921290487,310487518489998,11265,60,SRASH,2023-08-08 14:29:13,290487,,,
1404086922290487,310487518489998,11266,60,SRASH,2023-08-08 14:29:13,290487,,,
1404086923290487,310487518489998,11267,60,SRASH,2023-08-08 14:29:13,290487,,,
1404086924290487,310487518489998,11268,60,SRASH,2023-08-08 14:29:13,290487,,,
1404086925290487,310487518489998,11269,60,SRASH,2023-08-08 14:29:13,290487,,,
1404086926290487,310487518489998,11270,60,SRASH,2023-08-08 14:29:13,290487,,,
1404086927290487,310487518489998,11271,60,SRASH,2023-08-08 14:29:13,290487,,,
1404086928290487,310487518489998,11272,60,SRASH,2023-08-08 14:29:13,290487,,,
1404086929290487,310487518489998,11273,60,SRASH,2023-08-08 14:29:13,290487,,,
1404086930290487,310487518489998,12000,60,SRASH,2023-08-08 14:29:13,290487,,,
1404086931290487,310487518489998,47000,60,SRASH,2023-08-08 14:29:13,290487,,,
1404086932290487,310487518489998,47001,60,SRASH,2023-08-08 14:29:13,290487,,,
1404086933290487,310487518489998,53000,60,SRASH,2023-08-08 14:29:13,290487,,,
1404086934290487,310487518489998,54000,60,SRASH,2023-08-08 14:29:13,290487,,,
1404086935290487,310487518489998,55000,60,SRASH,2023-08-08 14:29:13,290487,,,
1404086936290487,310487518489998,56000,60,SRASH,2023-08-08 14:29:13,290487,,,
1404086937290487,310487518489998,57000,60,SRASH,2023-08-08 14:29:13,290487,,,
1404086938290487,310487518489998,58000,60,SRASH,2023-08-08 14:29:13,290487,,,
1404086939290487,310487518489998,60000,60,SRASH,2023-08-08 14:29:13,290487,,,
1404086940290487,310487518489998,61000,60,SRASH,2023-08-08 14:29:13,290487,,,
1404086941290487,310487518489998,61001,60,SRASH,2023-08-08 14:29:13,290487,,,